Time,TemperatureF,DewpointF,PressureIn,WindDirection,WindDirectionDegrees,WindSpeedMPH,WindSpeedGustMPH,Humidity,HourlyPrecipIn,Conditions,Clouds,dailyrainin,SoftwareType,DateUTC
2013-04-23 00:02:00,59.7,49.9,30.06,SW,214,3.0,3.0,70,0.00,,,0.00,VWS V14.01,2013-04-23 05:02:00,
2013-04-23 00:08:00,59.4,50.0,30.07,WSW,248,1.0,4.0,71,0.00,,,0.00,VWS V14.01,2013-04-23 05:08:00,
2013-04-23 00:13:00,58.5,51.0,30.06,SSW,201,2.0,2.0,76,0.00,,,0.00,VWS V14.01,2013-04-23 05:13:00,
2013-04-23 00:18:00,57.8,51.3,30.06,SW,223,2.0,3.0,79,0.00,,,0.00,VWS V14.01,2013-04-23 05:18:00,
2013-04-23 00:23:00,56.9,51.5,30.06,SW,219,1.0,1.0,82,0.00,,,0.00,VWS V14.01,2013-04-23 05:23:00,
2013-04-23 00:28:00,56.3,51.9,30.06,SW,219,0.0,0.0,85,0.01,,,0.01,VWS V14.01,2013-04-23 05:28:00,
2013-04-23 00:33:00,55.8,51.7,30.06,SW,219,0.0,0.0,86,0.01,,,0.01,VWS V14.01,2013-04-23 05:33:00,
2013-04-23 00:38:00,55.6,51.8,30.06,SW,219,0.0,0.0,87,0.01,,,0.01,VWS V14.01,2013-04-23 05:38:00,
2013-04-23 00:43:00,55.4,51.6,30.05,SW,219,0.0,0.0,87,0.01,,,0.01,VWS V14.01,2013-04-23 05:43:00,
2013-04-23 00:48:00,55.3,51.8,30.05,SW,219,0.0,0.0,88,0.01,,,0.01,VWS V14.01,2013-04-23 05:48:00,
2013-04-23 00:53:00,55.1,51.9,30.04,SW,219,0.0,0.0,89,0.02,,,0.02,VWS V14.01,2013-04-23 05:53:00,
2013-04-23 00:58:00,55.0,51.8,30.04,SW,219,0.0,0.0,89,0.02,,,0.02,VWS V14.01,2013-04-23 05:58:00,
2013-04-23 01:03:00,55.0,51.8,30.03,SW,219,0.0,0.0,89,0.02,,,0.02,VWS V14.01,2013-04-23 06:03:00,
2013-04-23 01:08:00,54.8,51.9,30.02,SW,219,0.0,0.0,90,0.02,,,0.02,VWS V14.01,2013-04-23 06:08:00,
2013-04-23 01:13:00,54.6,51.7,30.02,SW,219,0.0,0.0,90,0.02,,,0.02,VWS V14.01,2013-04-23 06:13:00,
2013-04-23 01:18:00,54.4,51.5,30.01,SW,219,1.0,1.0,90,0.02,,,0.02,VWS V14.01,2013-04-23 06:18:00,
2013-04-23 01:23:00,54.2,51.3,30.01,SW,219,0.0,0.0,90,0.02,,,0.02,VWS V14.01,2013-04-23 06:23:00,
2013-04-23 01:28:00,54.2,51.6,30.01,SW,219,0.0,0.0,91,0.01,,,0.02,VWS V14.01,2013-04-23 06:28:00,
2013-04-23 01:33:00,54.2,51.6,30.01,SW,219,0.0,0.0,91,0.01,,,0.02,VWS V14.01,2013-04-23 06:33:00,
2013-04-23 01:38:00,54.2,51.6,30.00,SW,219,0.0,0.0,91,0.01,,,0.02,VWS V14.01,2013-04-23 06:38:00,
2013-04-23 01:43:00,54.1,51.5,30.00,SW,219,0.0,0.0,91,0.01,,,0.02,VWS V14.01,2013-04-23 06:43:00,
2013-04-23 01:50:00,54.1,51.5,30.00,SW,219,0.0,0.0,91,0.01,,,0.02,VWS V14.01,2013-04-23 06:50:00,
2013-04-23 01:55:00,54.1,51.8,29.99,SW,219,0.0,0.0,92,0.00,,,0.02,VWS V14.01,2013-04-23 06:55:00,
2013-04-23 02:00:00,54.1,51.8,29.99,SW,219,0.0,0.0,92,0.00,,,0.02,VWS V14.01,2013-04-23 07:00:00,
2013-04-23 02:05:00,54.0,51.7,29.99,SW,219,0.0,0.0,92,0.00,,,0.02,VWS V14.01,2013-04-23 07:05:00,
2013-04-23 02:10:00,54.0,51.4,29.98,SW,219,0.0,0.0,91,0.00,,,0.02,VWS V14.01,2013-04-23 07:10:00,
2013-04-23 02:15:00,53.9,51.3,29.98,SW,219,0.0,0.0,91,0.00,,,0.02,VWS V14.01,2013-04-23 07:15:00,
2013-04-23 02:20:00,53.8,51.2,29.98,SW,219,0.0,0.0,91,0.00,,,0.02,VWS V14.01,2013-04-23 07:20:00,
2013-04-23 02:25:00,53.7,51.4,29.99,SW,219,0.0,0.0,92,0.00,,,0.02,VWS V14.01,2013-04-23 07:25:00,
2013-04-23 02:30:00,53.6,51.3,29.99,SW,219,0.0,0.0,92,0.00,,,0.02,VWS V14.01,2013-04-23 07:30:00,
2013-04-23 02:35:00,53.6,51.3,29.98,SW,219,0.0,0.0,92,0.00,,,0.02,VWS V14.01,2013-04-23 07:35:00,
2013-04-23 02:40:00,53.6,51.3,29.99,SW,219,0.0,0.0,92,0.00,,,0.02,VWS V14.01,2013-04-23 07:40:00,
2013-04-23 02:45:00,53.5,51.2,29.99,SW,219,0.0,0.0,92,0.00,,,0.02,VWS V14.01,2013-04-23 07:45:00,
2013-04-23 02:50:00,53.5,51.2,29.99,SW,219,0.0,0.0,92,0.00,,,0.02,VWS V14.01,2013-04-23 07:50:00,
2013-04-23 02:55:00,53.5,50.9,29.99,SW,219,0.0,0.0,91,0.00,,,0.02,VWS V14.01,2013-04-23 07:55:00,
2013-04-23 03:00:00,53.5,50.9,29.98,SW,219,0.0,0.0,91,0.00,,,0.02,VWS V14.01,2013-04-23 08:00:00,
2013-04-23 03:05:00,53.6,51.0,29.99,SW,219,0.0,0.0,91,0.00,,,0.02,VWS V14.01,2013-04-23 08:05:00,
2013-04-23 03:10:00,53.5,51.2,29.99,SW,219,0.0,0.0,92,0.00,,,0.02,VWS V14.01,2013-04-23 08:10:00,
2013-04-23 03:15:00,53.5,51.2,29.99,SW,219,0.0,0.0,92,0.00,,,0.02,VWS V14.01,2013-04-23 08:15:00,
2013-04-23 03:20:00,53.5,50.9,29.99,SW,219,0.0,0.0,91,0.00,,,0.02,VWS V14.01,2013-04-23 08:20:00,
2013-04-23 03:25:00,53.4,50.8,29.98,SW,219,0.0,0.0,91,0.00,,,0.02,VWS V14.01,2013-04-23 08:25:00,
2013-04-23 03:30:00,53.5,50.9,29.98,SW,219,0.0,0.0,91,0.00,,,0.02,VWS V14.01,2013-04-23 08:30:00,
2013-04-23 03:35:00,53.4,50.8,29.98,SW,219,0.0,0.0,91,0.00,,,0.02,VWS V14.01,2013-04-23 08:35:00,
2013-04-23 03:40:00,53.4,50.5,29.97,SW,219,0.0,0.0,90,0.00,,,0.02,VWS V14.01,2013-04-23 08:40:00,
2013-04-23 03:45:00,53.5,50.6,29.97,SW,219,0.0,0.0,90,0.00,,,0.02,VWS V14.01,2013-04-23 08:45:00,
2013-04-23 03:50:00,53.6,50.7,29.96,SW,219,0.0,0.0,90,0.00,,,0.02,VWS V14.01,2013-04-23 08:50:00,
2013-04-23 03:55:00,53.7,50.5,29.95,SW,219,0.0,1.0,89,0.00,,,0.02,VWS V14.01,2013-04-23 08:55:00,
2013-04-23 04:00:00,53.7,50.5,29.94,SW,219,0.0,1.0,89,0.00,,,0.02,VWS V14.01,2013-04-23 09:00:00,
2013-04-23 04:05:00,53.7,50.2,29.94,SW,219,0.0,0.0,88,0.00,,,0.02,VWS V14.01,2013-04-23 09:05:00,
2013-04-23 04:10:00,53.6,50.1,29.96,SW,219,0.0,0.0,88,0.00,,,0.02,VWS V14.01,2013-04-23 09:10:00,
2013-04-23 04:15:00,53.6,50.4,29.96,SW,219,0.0,0.0,89,0.00,,,0.02,VWS V14.01,2013-04-23 09:15:00,
2013-04-23 04:20:00,53.5,50.0,29.95,SW,219,0.0,0.0,88,0.00,,,0.02,VWS V14.01,2013-04-23 09:20:00,
2013-04-23 04:25:00,53.5,50.0,29.95,SW,219,0.0,0.0,88,0.00,,,0.02,VWS V14.01,2013-04-23 09:25:00,
2013-04-23 04:30:00,53.5,50.0,29.94,SW,219,0.0,0.0,88,0.00,,,0.02,VWS V14.01,2013-04-23 09:30:00,
2013-04-23 04:35:00,53.5,50.3,29.95,SW,219,0.0,0.0,89,0.00,,,0.02,VWS V14.01,2013-04-23 09:35:00,
2013-04-23 04:40:00,53.4,50.2,29.95,SW,219,0.0,0.0,89,0.00,,,0.02,VWS V14.01,2013-04-23 09:40:00,
2013-04-23 04:45:00,53.4,49.9,29.94,SW,219,0.0,0.0,88,0.00,,,0.02,VWS V14.01,2013-04-23 09:45:00,
2013-04-23 04:50:00,53.4,49.9,29.94,SW,219,0.0,0.0,88,0.00,,,0.02,VWS V14.01,2013-04-23 09:50:00,
2013-04-23 04:55:00,53.6,50.1,29.93,SW,219,0.0,0.0,88,0.00,,,0.02,VWS V14.01,2013-04-23 09:55:00,
2013-04-23 05:00:00,53.6,50.1,29.93,SW,219,0.0,0.0,88,0.00,,,0.02,VWS V14.01,2013-04-23 10:00:00,
2013-04-23 05:05:00,53.7,49.9,29.93,SW,219,0.0,0.0,87,0.00,,,0.02,VWS V14.01,2013-04-23 10:05:00,
2013-04-23 05:10:00,53.6,49.8,29.94,SW,219,0.0,0.0,87,0.00,,,0.02,VWS V14.01,2013-04-23 10:10:00,
2013-04-23 05:15:00,53.6,49.8,29.95,SW,216,0.0,0.0,87,0.00,,,0.02,VWS V14.01,2013-04-23 10:15:00,
2013-04-23 05:20:00,53.7,49.9,29.95,SW,214,0.0,1.0,87,0.00,,,0.02,VWS V14.01,2013-04-23 10:20:00,
2013-04-23 05:25:00,53.8,49.7,29.95,SW,219,2.0,2.0,86,0.00,,,0.02,VWS V14.01,2013-04-23 10:25:00,
2013-04-23 05:30:00,54.0,49.9,29.95,SW,219,0.0,0.0,86,0.00,,,0.02,VWS V14.01,2013-04-23 10:30:00,
2013-04-23 05:35:00,54.4,50.3,29.95,SW,219,1.0,1.0,86,0.00,,,0.02,VWS V14.01,2013-04-23 10:35:00,
2013-04-23 05:40:00,54.7,50.3,29.95,SSW,193,1.0,4.0,85,0.00,,,0.02,VWS V14.01,2013-04-23 10:40:00,
2013-04-23 05:45:00,54.9,50.2,29.95,SSW,193,0.0,1.0,84,0.00,,,0.02,VWS V14.01,2013-04-23 10:45:00,
2013-04-23 05:50:00,55.1,50.4,29.95,SSW,195,2.0,2.0,84,0.00,,,0.02,VWS V14.01,2013-04-23 10:50:00,
2013-04-23 05:55:00,55.3,50.2,29.95,SW,217,0.0,1.0,83,0.00,,,0.02,VWS V14.01,2013-04-23 10:55:00,
2013-04-23 06:00:00,55.4,50.3,29.95,SW,217,0.0,0.0,83,0.00,,,0.02,VWS V14.01,2013-04-23 11:00:00,
2013-04-23 06:05:00,55.5,50.1,29.94,SW,217,0.0,0.0,82,0.00,,,0.02,VWS V14.01,2013-04-23 11:05:00,
2013-04-23 06:10:00,55.6,50.2,29.94,SW,217,2.0,2.0,82,0.00,,,0.02,VWS V14.01,2013-04-23 11:10:00,
2013-04-23 06:15:00,55.7,50.3,29.94,SW,220,1.0,1.0,82,0.00,,,0.02,VWS V14.01,2013-04-23 11:15:00,
2013-04-23 06:20:00,55.7,50.3,29.94,SW,220,0.0,2.0,82,0.00,,,0.02,VWS V14.01,2013-04-23 11:20:00,
2013-04-23 06:25:00,55.7,50.3,29.93,SW,220,0.0,1.0,82,0.00,,,0.02,VWS V14.01,2013-04-23 11:25:00,
2013-04-23 06:30:00,55.5,50.1,29.93,SW,220,0.0,1.0,82,0.00,,,0.02,VWS V14.01,2013-04-23 11:30:00,
2013-04-23 06:35:00,55.5,50.1,29.93,SW,221,0.0,0.0,82,0.00,,,0.02,VWS V14.01,2013-04-23 11:35:00,
2013-04-23 06:40:00,55.4,50.0,29.92,SW,223,1.0,1.0,82,0.00,,,0.02,VWS V14.01,2013-04-23 11:40:00,
2013-04-23 06:45:00,55.4,50.0,29.92,SSW,202,1.0,4.0,82,0.00,,,0.02,VWS V14.01,2013-04-23 11:45:00,
2013-04-23 06:50:00,55.6,50.2,29.93,SSW,202,0.0,1.0,82,0.00,,,0.02,VWS V14.01,2013-04-23 11:50:00,
2013-04-23 06:55:00,55.6,50.2,29.92,SSW,202,0.0,0.0,82,0.00,,,0.02,VWS V14.01,2013-04-23 11:55:00,
2013-04-23 07:00:00,55.7,50.3,29.92,SSW,202,0.0,0.0,82,0.00,,,0.02,VWS V14.01,2013-04-23 12:00:00,
2013-04-23 07:05:00,55.8,50.4,29.93,WSW,240,2.0,2.0,82,0.00,,,0.02,VWS V14.01,2013-04-23 12:05:00,
2013-04-23 07:10:00,55.8,50.4,29.94,NNE,26,0.0,1.0,82,0.00,,,0.02,VWS V14.01,2013-04-23 12:10:00,
2013-04-23 07:15:00,55.6,50.5,29.94,South,177,0.0,0.0,83,0.00,,,0.02,VWS V14.01,2013-04-23 12:15:00,
2013-04-23 07:20:00,55.3,50.6,29.94,South,177,0.0,0.0,84,0.00,,,0.02,VWS V14.01,2013-04-23 12:20:00,
2013-04-23 07:25:00,55.1,50.7,29.95,South,177,0.0,0.0,85,0.00,,,0.02,VWS V14.01,2013-04-23 12:25:00,
2013-04-23 07:30:00,54.9,50.2,29.95,South,177,0.0,0.0,84,0.00,,,0.02,VWS V14.01,2013-04-23 12:30:00,
2013-04-23 07:35:00,54.8,50.4,29.95,South,177,0.0,0.0,85,0.00,,,0.02,VWS V14.01,2013-04-23 12:35:00,
2013-04-23 07:40:00,54.8,50.4,29.95,South,177,0.0,0.0,85,0.00,,,0.02,VWS V14.01,2013-04-23 12:40:00,
2013-04-23 07:45:00,54.7,50.3,29.95,South,177,0.0,0.0,85,0.00,,,0.02,VWS V14.01,2013-04-23 12:45:00,
2013-04-23 07:50:00,54.7,50.6,29.95,South,177,0.0,0.0,86,0.00,,,0.02,VWS V14.01,2013-04-23 12:50:00,
2013-04-23 07:56:00,54.7,50.9,29.96,South,177,0.0,0.0,87,0.00,,,0.02,VWS V14.01,2013-04-23 12:56:00,
2013-04-23 08:01:00,54.7,50.9,29.95,South,177,0.0,0.0,87,0.00,,,0.02,VWS V14.01,2013-04-23 13:01:00,
2013-04-23 08:06:00,54.7,50.9,29.95,South,177,0.0,0.0,87,0.00,,,0.02,VWS V14.01,2013-04-23 13:06:00,
2013-04-23 08:11:00,54.7,50.9,29.95,South,177,0.0,0.0,87,0.00,,,0.02,VWS V14.01,2013-04-23 13:11:00,
2013-04-23 08:16:00,54.8,51.3,29.96,South,177,0.0,0.0,88,0.00,,,0.02,VWS V14.01,2013-04-23 13:16:00,
2013-04-23 08:21:00,54.8,51.6,29.96,South,177,0.0,0.0,89,0.00,,,0.02,VWS V14.01,2013-04-23 13:21:00,
2013-04-23 08:26:00,54.8,51.3,29.97,South,177,0.0,1.0,88,0.00,,,0.02,VWS V14.01,2013-04-23 13:26:00,
2013-04-23 08:31:00,54.7,50.9,29.97,South,177,0.0,0.0,87,0.00,,,0.02,VWS V14.01,2013-04-23 13:31:00,
2013-04-23 08:36:00,54.6,51.1,29.97,South,177,0.0,0.0,88,0.00,,,0.02,VWS V14.01,2013-04-23 13:36:00,
2013-04-23 08:41:00,54.6,51.1,29.97,SE,130,0.0,1.0,88,0.00,,,0.02,VWS V14.01,2013-04-23 13:41:00,
2013-04-23 08:45:00,54.3,50.8,29.97,NE,48,0.0,0.0,88,0.00,,,0.02,VWS V14.01,2013-04-23 13:45:00,
2013-04-23 08:50:00,54.1,50.9,29.97,NE,48,0.0,0.0,89,0.00,,,0.02,VWS V14.01,2013-04-23 13:50:00,
2013-04-23 08:55:00,53.7,50.5,29.97,NNE,30,0.0,1.0,89,0.00,,,0.02,VWS V14.01,2013-04-23 13:55:00,
2013-04-23 09:00:00,53.5,50.6,29.97,NE,39,0.0,0.0,90,0.01,,,0.03,VWS V14.01,2013-04-23 14:00:00,
2013-04-23 09:05:00,53.3,50.7,29.97,NE,39,0.0,0.0,91,0.01,,,0.03,VWS V14.01,2013-04-23 14:05:00,
2013-04-23 09:10:00,53.2,50.7,29.97,NE,39,1.0,1.0,91,0.01,,,0.03,VWS V14.01,2013-04-23 14:10:00,
2013-04-23 09:15:00,53.1,50.5,29.97,NE,39,0.0,0.0,91,0.01,,,0.03,VWS V14.01,2013-04-23 14:15:00,
2013-04-23 09:20:00,53.0,50.7,29.97,NE,39,0.0,0.0,92,0.01,,,0.03,VWS V14.01,2013-04-23 14:20:00,
2013-04-23 09:25:00,52.9,50.6,29.97,NE,39,0.0,0.0,92,0.01,,,0.03,VWS V14.01,2013-04-23 14:25:00,
2013-04-23 09:30:00,52.9,50.6,29.97,NE,39,0.0,0.0,92,0.02,,,0.04,VWS V14.01,2013-04-23 14:30:00,
2013-04-23 09:36:00,52.9,50.9,29.97,NE,39,0.0,0.0,93,0.02,,,0.04,VWS V14.01,2013-04-23 14:36:00,
2013-04-23 09:41:00,52.8,50.8,29.97,NE,39,0.0,0.0,93,0.02,,,0.04,VWS V14.01,2013-04-23 14:41:00,
2013-04-23 09:46:00,52.7,50.7,29.97,NE,39,0.0,0.0,93,0.02,,,0.04,VWS V14.01,2013-04-23 14:46:00,
2013-04-23 09:50:00,52.5,50.2,29.97,WSW,244,0.0,0.0,92,0.02,,,0.04,VWS V14.01,2013-04-23 14:50:00,
2013-04-23 09:55:00,52.1,49.6,29.97,NNE,22,1.0,1.0,91,0.02,,,0.04,VWS V14.01,2013-04-23 14:55:00,
2013-04-23 10:00:00,51.7,49.5,29.97,NE,45,0.0,1.0,92,0.01,,,0.04,VWS V14.01,2013-04-23 15:00:00,
2013-04-23 10:06:00,51.3,48.8,29.97,NE,38,4.0,4.0,91,0.01,,,0.04,VWS V14.01,2013-04-23 15:06:00,
2013-04-23 10:11:00,50.8,48.6,29.97,NE,40,0.0,1.0,92,0.01,,,0.04,VWS V14.01,2013-04-23 15:11:00,
2013-04-23 10:16:00,50.7,48.5,29.98,NE,40,3.0,3.0,92,0.01,,,0.04,VWS V14.01,2013-04-23 15:16:00,
2013-04-23 10:20:00,50.4,48.2,29.98,NE,40,0.0,2.0,92,0.01,,,0.04,VWS V14.01,2013-04-23 15:20:00,
2013-04-23 10:25:00,50.3,48.4,29.97,NE,40,1.0,2.0,93,0.01,,,0.04,VWS V14.01,2013-04-23 15:25:00,
2013-04-23 10:30:00,50.1,47.9,29.98,NE,40,0.0,1.0,92,0.01,,,0.05,VWS V14.01,2013-04-23 15:30:00,
2013-04-23 10:35:00,50.0,48.1,29.98,NE,40,0.0,0.0,93,0.01,,,0.05,VWS V14.01,2013-04-23 15:35:00,
2013-04-23 10:40:00,49.9,48.0,29.97,NE,40,0.0,0.0,93,0.01,,,0.05,VWS V14.01,2013-04-23 15:40:00,
2013-04-23 10:45:00,50.0,48.1,29.97,NE,40,0.0,0.0,93,0.01,,,0.05,VWS V14.01,2013-04-23 15:45:00,
2013-04-23 10:50:00,50.1,48.4,29.97,NE,40,0.0,0.0,94,0.01,,,0.05,VWS V14.01,2013-04-23 15:50:00,
2013-04-23 10:56:00,50.0,48.1,29.97,NE,40,0.0,1.0,93,0.01,,,0.05,VWS V14.01,2013-04-23 15:56:00,
2013-04-23 11:01:00,49.8,47.9,29.97,NE,40,0.0,0.0,93,0.01,,,0.05,VWS V14.01,2013-04-23 16:01:00,
2013-04-23 11:06:00,49.8,47.9,29.97,NE,40,0.0,0.0,93,0.01,,,0.05,VWS V14.01,2013-04-23 16:06:00,
2013-04-23 11:11:00,49.6,47.7,29.97,NE,40,0.0,0.0,93,0.02,,,0.06,VWS V14.01,2013-04-23 16:11:00,
2013-04-23 11:16:00,49.4,47.5,29.97,NE,40,0.0,0.0,93,0.02,,,0.06,VWS V14.01,2013-04-23 16:16:00,
2013-04-23 11:21:00,49.2,47.0,29.98,NE,40,1.0,1.0,92,0.02,,,0.06,VWS V14.01,2013-04-23 16:21:00,
2013-04-23 11:26:00,48.9,46.7,29.98,NE,40,0.0,0.0,92,0.01,,,0.06,VWS V14.01,2013-04-23 16:26:00,
2013-04-23 11:31:00,48.7,46.5,29.97,NE,40,0.0,1.0,92,0.01,,,0.06,VWS V14.01,2013-04-23 16:31:00,
2013-04-23 11:36:00,48.7,46.8,29.97,NE,40,0.0,0.0,93,0.01,,,0.06,VWS V14.01,2013-04-23 16:36:00,
2013-04-23 11:41:00,48.5,46.6,29.97,NE,40,0.0,0.0,93,0.01,,,0.06,VWS V14.01,2013-04-23 16:41:00,
2013-04-23 11:46:00,48.3,46.4,29.98,NE,40,3.0,3.0,93,0.01,,,0.06,VWS V14.01,2013-04-23 16:46:00,
2013-04-23 11:51:00,48.2,46.3,29.98,NE,41,0.0,0.0,93,0.01,,,0.06,VWS V14.01,2013-04-23 16:51:00,
2013-04-23 11:56:00,48.0,46.1,29.98,NE,41,0.0,0.0,93,0.01,,,0.06,VWS V14.01,2013-04-23 16:56:00,
2013-04-23 12:01:00,47.8,45.9,29.98,NE,41,0.0,1.0,93,0.01,,,0.06,VWS V14.01,2013-04-23 17:01:00,
2013-04-23 12:06:00,47.6,45.7,29.98,NE,41,0.0,0.0,93,0.01,,,0.06,VWS V14.01,2013-04-23 17:06:00,
2013-04-23 12:11:00,47.4,45.5,29.99,ENE,68,0.0,1.0,93,0.00,,,0.06,VWS V14.01,2013-04-23 17:11:00,
2013-04-23 12:16:00,47.1,45.2,29.99,East,90,0.0,0.0,93,0.00,,,0.06,VWS V14.01,2013-04-23 17:16:00,
2013-04-23 12:21:00,46.8,44.6,29.99,South,181,6.0,6.0,92,0.00,,,0.06,VWS V14.01,2013-04-23 17:21:00,
2013-04-23 12:26:00,46.4,44.2,29.99,NE,46,2.0,2.0,92,0.01,,,0.07,VWS V14.01,2013-04-23 17:26:00,
2013-04-23 12:31:00,46.1,44.2,29.99,NNE,19,0.0,1.0,93,0.01,,,0.07,VWS V14.01,2013-04-23 17:31:00,
2013-04-23 12:36:00,45.9,44.0,29.99,NE,37,0.0,0.0,93,0.01,,,0.07,VWS V14.01,2013-04-23 17:36:00,
2013-04-23 12:41:00,45.5,43.3,29.99,North,355,2.0,2.0,92,0.01,,,0.07,VWS V14.01,2013-04-23 17:41:00,
2013-04-23 12:46:00,45.1,42.9,29.99,NNE,22,0.0,0.0,92,0.01,,,0.07,VWS V14.01,2013-04-23 17:46:00,
2013-04-23 12:51:00,44.7,42.5,29.99,East,94,2.0,2.0,92,0.01,,,0.07,VWS V14.01,2013-04-23 17:51:00,
2013-04-23 12:56:00,44.3,42.1,29.98,NNE,29,1.0,2.0,92,0.01,,,0.07,VWS V14.01,2013-04-23 17:56:00,
2013-04-23 13:01:00,44.1,42.2,29.98,East,81,0.0,1.0,93,0.01,,,0.07,VWS V14.01,2013-04-23 18:01:00,
2013-04-23 13:06:00,43.8,41.9,29.97,NNE,21,2.0,2.0,93,0.01,,,0.07,VWS V14.01,2013-04-23 18:06:00,
2013-04-23 13:11:00,43.8,41.9,29.96,NE,36,4.0,4.0,93,0.01,,,0.07,VWS V14.01,2013-04-23 18:11:00,
2013-04-23 13:16:00,43.8,42.2,29.95,NNE,25,2.0,2.0,94,0.01,,,0.07,VWS V14.01,2013-04-23 18:16:00,
2013-04-23 13:21:00,43.6,42.0,29.94,NE,36,3.0,3.0,94,0.01,,,0.07,VWS V14.01,2013-04-23 18:21:00,
2013-04-23 13:26:00,43.6,42.0,29.94,NNE,32,2.0,2.0,94,0.01,,,0.08,VWS V14.01,2013-04-23 18:26:00,
2013-04-23 13:31:00,43.6,42.0,29.94,NNE,33,3.0,3.0,94,0.01,,,0.08,VWS V14.01,2013-04-23 18:31:00,
2013-04-23 13:36:00,43.4,41.8,29.94,North,10,1.0,3.0,94,0.01,,,0.08,VWS V14.01,2013-04-23 18:36:00,
2013-04-23 13:41:00,43.4,41.8,29.94,NE,44,4.0,4.0,94,0.01,,,0.08,VWS V14.01,2013-04-23 18:41:00,
2013-04-23 13:46:00,43.4,41.8,29.93,NE,36,3.0,3.0,94,0.01,,,0.08,VWS V14.01,2013-04-23 18:46:00,
2013-04-23 13:51:00,43.5,41.9,29.93,NE,36,1.0,2.0,94,0.01,,,0.08,VWS V14.01,2013-04-23 18:51:00,
2013-04-23 13:56:00,43.5,41.9,29.93,NE,39,2.0,4.0,94,0.01,,,0.08,VWS V14.01,2013-04-23 18:56:00,
2013-04-23 14:01:00,43.5,41.9,29.92,NE,36,3.0,4.0,94,0.01,,,0.08,VWS V14.01,2013-04-23 19:01:00,
2013-04-23 14:06:00,43.6,42.3,29.93,NE,55,1.0,3.0,95,0.01,,,0.08,VWS V14.01,2013-04-23 19:06:00,
2013-04-23 14:12:00,43.7,42.1,29.92,NE,38,2.0,2.0,94,0.01,,,0.08,VWS V14.01,2013-04-23 19:12:00,
2013-04-23 14:17:00,43.7,42.1,29.93,NE,38,3.0,3.0,94,0.01,,,0.08,VWS V14.01,2013-04-23 19:17:00,
2013-04-23 14:22:00,43.6,42.0,29.93,NE,34,1.0,4.0,94,0.01,,,0.08,VWS V14.01,2013-04-23 19:22:00,
2013-04-23 14:27:00,43.4,41.8,29.93,NE,34,5.0,5.0,94,0.01,,,0.09,VWS V14.01,2013-04-23 19:27:00,
2013-04-23 14:32:00,43.3,41.4,29.93,NE,37,4.0,4.0,93,0.01,,,0.09,VWS V14.01,2013-04-23 19:32:00,
2013-04-23 14:37:00,43.3,41.7,29.92,NE,44,2.0,4.0,94,0.01,,,0.09,VWS V14.01,2013-04-23 19:37:00,
2013-04-23 14:42:00,43.2,41.6,29.93,NE,53,1.0,1.0,94,0.01,,,0.09,VWS V14.01,2013-04-23 19:42:00,
2013-04-23 14:47:00,43.1,41.5,29.92,NNE,29,2.0,4.0,94,0.01,,,0.09,VWS V14.01,2013-04-23 19:47:00,
2013-04-23 14:52:00,43.1,41.8,29.92,NNE,28,3.0,3.0,95,0.01,,,0.09,VWS V14.01,2013-04-23 19:52:00,
2013-04-23 14:57:00,43.1,41.8,29.93,NNE,28,1.0,3.0,95,0.01,,,0.09,VWS V14.01,2013-04-23 19:57:00,
2013-04-23 15:02:00,43.1,41.8,29.93,NNE,28,2.0,2.0,95,0.01,,,0.09,VWS V14.01,2013-04-23 20:02:00,
2013-04-23 15:07:00,43.1,41.8,29.93,NE,40,0.0,0.0,95,0.01,,,0.09,VWS V14.01,2013-04-23 20:07:00,
2013-04-23 15:12:00,43.1,41.8,29.93,NE,40,1.0,2.0,95,0.01,,,0.09,VWS V14.01,2013-04-23 20:12:00,
2013-04-23 15:17:00,43.1,41.8,29.93,NE,40,2.0,3.0,95,0.01,,,0.09,VWS V14.01,2013-04-23 20:17:00,
2013-04-23 15:22:00,43.2,41.9,29.93,NE,40,1.0,1.0,95,0.02,,,0.10,VWS V14.01,2013-04-23 20:22:00,
2013-04-23 15:27:00,43.2,41.9,29.93,NNE,30,0.0,2.0,95,0.01,,,0.10,VWS V14.01,2013-04-23 20:27:00,
2013-04-23 15:32:00,43.3,42.0,29.93,NNE,30,0.0,2.0,95,0.01,,,0.10,VWS V14.01,2013-04-23 20:32:00,
2013-04-23 15:37:00,43.3,42.0,29.93,NNE,30,2.0,2.0,95,0.01,,,0.10,VWS V14.01,2013-04-23 20:37:00,
2013-04-23 15:42:00,43.3,42.0,29.94,NNE,19,0.0,0.0,95,0.01,,,0.10,VWS V14.01,2013-04-23 20:42:00,
2013-04-23 15:47:00,43.3,42.0,29.94,NNE,19,1.0,1.0,95,0.01,,,0.10,VWS V14.01,2013-04-23 20:47:00,
2013-04-23 15:52:00,43.2,41.9,29.95,NNE,32,2.0,2.0,95,0.01,,,0.10,VWS V14.01,2013-04-23 20:52:00,
2013-04-23 15:57:00,43.0,41.7,29.95,ESE,107,3.0,3.0,95,0.01,,,0.10,VWS V14.01,2013-04-23 20:57:00,
2013-04-23 16:02:00,42.9,41.6,29.94,South,169,0.0,1.0,95,0.01,,,0.10,VWS V14.01,2013-04-23 21:02:00,
2013-04-23 16:07:00,42.7,41.4,29.95,NE,34,0.0,1.0,95,0.01,,,0.10,VWS V14.01,2013-04-23 21:07:00,
2013-04-23 16:12:00,42.6,41.3,29.95,NE,34,1.0,3.0,95,0.01,,,0.10,VWS V14.01,2013-04-23 21:12:00,
2013-04-23 16:17:00,42.5,41.2,29.94,NE,36,5.0,5.0,95,0.01,,,0.10,VWS V14.01,2013-04-23 21:17:00,
2013-04-23 16:22:00,42.4,41.1,29.94,NE,38,0.0,0.0,95,0.00,,,0.10,VWS V14.01,2013-04-23 21:22:00,
2013-04-23 16:27:00,42.5,41.2,29.94,South,175,0.0,4.0,95,0.00,,,0.10,VWS V14.01,2013-04-23 21:27:00,
2013-04-23 16:32:00,42.5,41.2,29.95,NE,35,3.0,5.0,95,0.00,,,0.10,VWS V14.01,2013-04-23 21:32:00,
2013-04-23 16:37:00,42.4,41.1,29.94,NNE,28,1.0,1.0,95,0.01,,,0.11,VWS V14.01,2013-04-23 21:37:00,
2013-04-23 16:42:00,42.4,41.1,29.94,North,9,3.0,5.0,95,0.01,,,0.11,VWS V14.01,2013-04-23 21:42:00,
2013-04-23 16:47:00,42.3,41.0,29.95,NE,44,2.0,2.0,95,0.01,,,0.11,VWS V14.01,2013-04-23 21:47:00,
2013-04-23 16:52:00,42.2,40.9,29.95,NNE,32,1.0,5.0,95,0.01,,,0.11,VWS V14.01,2013-04-23 21:52:00,
2013-04-23 16:57:00,42.2,40.9,29.96,NNE,32,1.0,1.0,95,0.01,,,0.11,VWS V14.01,2013-04-23 21:57:00,
2013-04-23 17:03:00,42.1,40.8,29.95,NNE,30,5.0,5.0,95,0.01,,,0.11,VWS V14.01,2013-04-23 22:03:00,
2013-04-23 17:08:00,42.2,40.9,29.95,NNE,30,0.0,3.0,95,0.01,,,0.11,VWS V14.01,2013-04-23 22:08:00,
2013-04-23 17:13:00,42.2,40.9,29.95,NNE,32,4.0,4.0,95,0.01,,,0.11,VWS V14.01,2013-04-23 22:13:00,
2013-04-23 17:18:00,42.1,40.8,29.94,NNE,31,1.0,3.0,95,0.01,,,0.11,VWS V14.01,2013-04-23 22:18:00,
2013-04-23 17:23:00,42.1,40.8,29.95,NE,40,3.0,5.0,95,0.01,,,0.11,VWS V14.01,2013-04-23 22:23:00,
2013-04-23 17:28:00,42.1,40.8,29.95,NNE,20,1.0,1.0,95,0.01,,,0.11,VWS V14.01,2013-04-23 22:28:00,
2013-04-23 17:33:00,42.0,40.7,29.95,NNE,21,0.0,0.0,95,0.02,,,0.12,VWS V14.01,2013-04-23 22:33:00,
2013-04-23 17:38:00,41.8,40.5,29.95,NE,40,0.0,0.0,95,0.01,,,0.12,VWS V14.01,2013-04-23 22:38:00,
2013-04-23 17:43:00,41.7,40.4,29.95,NNW,340,2.0,3.0,95,0.01,,,0.12,VWS V14.01,2013-04-23 22:43:00,
2013-04-23 17:48:00,41.6,40.3,29.96,NNE,19,2.0,2.0,95,0.01,,,0.12,VWS V14.01,2013-04-23 22:48:00,
2013-04-23 17:53:00,41.5,40.2,29.95,NE,37,1.0,2.0,95,0.01,,,0.12,VWS V14.01,2013-04-23 22:53:00,
2013-04-23 17:58:00,41.5,40.2,29.95,NNW,335,1.0,1.0,95,0.01,,,0.12,VWS V14.01,2013-04-23 22:58:00,
2013-04-23 18:03:00,41.3,40.0,29.95,NE,44,0.0,5.0,95,0.01,,,0.12,VWS V14.01,2013-04-23 23:03:00,
2013-04-23 18:08:00,41.3,40.0,29.95,NNE,24,3.0,4.0,95,0.01,,,0.12,VWS V14.01,2013-04-23 23:08:00,
2013-04-23 18:13:00,41.4,40.1,29.95,NE,34,0.0,0.0,95,0.01,,,0.12,VWS V14.01,2013-04-23 23:13:00,
2013-04-23 18:18:00,41.4,40.1,29.95,NE,34,1.0,1.0,95,0.18,,,0.29,VWS V14.01,2013-04-23 23:18:00,
2013-04-23 18:23:00,41.4,40.1,29.95,NNE,17,2.0,3.0,95,0.18,,,0.29,VWS V14.01,2013-04-23 23:23:00,
2013-04-23 18:28:00,41.4,40.1,29.95,NE,34,0.0,2.0,95,0.19,,,0.30,VWS V14.01,2013-04-23 23:28:00,
2013-04-23 18:33:00,41.4,40.1,29.94,NNE,31,3.0,5.0,95,0.18,,,0.30,VWS V14.01,2013-04-23 23:33:00,
2013-04-23 18:38:00,41.3,40.0,29.95,NNE,29,0.0,0.0,95,0.18,,,0.30,VWS V14.01,2013-04-23 23:38:00,
2013-04-23 18:43:00,41.1,39.8,29.95,NNE,30,0.0,4.0,95,0.18,,,0.30,VWS V14.01,2013-04-23 23:43:00,
2013-04-23 18:48:00,41.0,39.7,29.95,NE,38,3.0,3.0,95,0.18,,,0.30,VWS V14.01,2013-04-23 23:48:00,
2013-04-23 18:53:00,40.9,39.6,29.95,NE,35,2.0,3.0,95,0.18,,,0.30,VWS V14.01,2013-04-23 23:53:00,
2013-04-23 18:58:00,40.8,39.5,29.95,SW,230,0.0,1.0,95,0.18,,,0.30,VWS V14.01,2013-04-23 23:58:00,
2013-04-23 19:03:00,40.8,39.5,29.95,NE,46,2.0,2.0,95,0.18,,,0.30,VWS V14.01,2013-04-24 00:03:00,
2013-04-23 19:08:00,40.7,39.4,29.95,NE,54,2.0,2.0,95,0.18,,,0.30,VWS V14.01,2013-04-24 00:08:00,
2013-04-23 19:13:00,40.6,39.0,29.95,NE,36,1.0,2.0,94,0.19,,,0.31,VWS V14.01,2013-04-24 00:13:00,
2013-04-23 19:18:00,40.5,39.2,29.95,NE,35,3.0,4.0,95,0.02,,,0.31,VWS V14.01,2013-04-24 00:18:00,
2013-04-23 19:23:00,40.4,38.8,29.94,NNE,17,4.0,4.0,94,0.02,,,0.31,VWS V14.01,2013-04-24 00:23:00,
2013-04-23 19:28:00,40.4,39.1,29.94,NNE,31,4.0,5.0,95,0.01,,,0.31,VWS V14.01,2013-04-24 00:28:00,
2013-04-23 19:33:00,40.3,39.0,29.95,NNE,30,3.0,5.0,95,0.01,,,0.31,VWS V14.01,2013-04-24 00:33:00,
2013-04-23 19:38:00,40.3,39.0,29.94,NNE,32,1.0,1.0,95,0.01,,,0.31,VWS V14.01,2013-04-24 00:38:00,
2013-04-23 19:43:00,40.2,38.9,29.94,NE,44,0.0,1.0,95,0.01,,,0.31,VWS V14.01,2013-04-24 00:43:00,
2013-04-23 19:48:00,40.2,38.6,29.94,NNE,23,3.0,4.0,94,0.01,,,0.31,VWS V14.01,2013-04-24 00:48:00,
2013-04-23 19:53:00,40.2,38.9,29.95,NE,36,4.0,4.0,95,0.01,,,0.31,VWS V14.01,2013-04-24 00:53:00,
2013-04-23 19:58:00,40.2,38.6,29.95,NNE,15,2.0,4.0,94,0.01,,,0.31,VWS V14.01,2013-04-24 00:58:00,
2013-04-23 20:03:00,40.1,38.5,29.96,NE,35,3.0,5.0,94,0.01,,,0.31,VWS V14.01,2013-04-24 01:03:00,
2013-04-23 20:08:00,40.0,38.4,29.96,NE,36,3.0,3.0,94,0.01,,,0.31,VWS V14.01,2013-04-24 01:08:00,
2013-04-23 20:13:00,40.0,38.4,29.95,NE,38,2.0,2.0,94,0.00,,,0.31,VWS V14.01,2013-04-24 01:13:00,
2013-04-23 20:18:00,39.9,38.3,29.96,NE,36,2.0,3.0,94,0.00,,,0.31,VWS V14.01,2013-04-24 01:18:00,
2013-04-23 20:23:00,39.9,38.3,29.96,NNE,15,1.0,1.0,94,0.00,,,0.31,VWS V14.01,2013-04-24 01:23:00,
2013-04-23 20:28:00,39.9,38.3,29.96,NE,34,3.0,3.0,94,0.00,,,0.31,VWS V14.01,2013-04-24 01:28:00,
2013-04-23 20:34:00,39.9,38.3,29.97,NE,44,1.0,1.0,94,0.00,,,0.31,VWS V14.01,2013-04-24 01:34:00,
2013-04-23 20:39:00,39.9,38.3,29.96,NE,34,3.0,3.0,94,0.00,,,0.31,VWS V14.01,2013-04-24 01:39:00,
2013-04-23 20:44:00,39.9,38.3,29.97,NE,53,0.0,0.0,94,0.00,,,0.31,VWS V14.01,2013-04-24 01:44:00,
2013-04-23 20:49:00,39.9,38.3,29.96,NE,43,3.0,4.0,94,0.00,,,0.31,VWS V14.01,2013-04-24 01:49:00,
2013-04-23 20:54:00,39.9,38.3,29.97,NNE,32,2.0,2.0,94,0.00,,,0.31,VWS V14.01,2013-04-24 01:54:00,
2013-04-23 20:59:00,39.9,38.3,29.97,NE,47,0.0,0.0,94,0.00,,,0.31,VWS V14.01,2013-04-24 01:59:00,
2013-04-23 21:04:00,39.9,38.3,29.98,NE,47,1.0,4.0,94,0.00,,,0.31,VWS V14.01,2013-04-24 02:04:00,
2013-04-23 21:09:00,39.9,38.6,29.99,NNE,15,2.0,4.0,95,0.00,,,0.31,VWS V14.01,2013-04-24 02:09:00,
2013-04-23 21:14:00,39.9,38.3,29.98,NNE,21,1.0,4.0,94,0.00,,,0.31,VWS V14.01,2013-04-24 02:14:00,
2013-04-23 21:19:00,39.9,38.3,29.99,NNW,334,0.0,1.0,94,0.00,,,0.31,VWS V14.01,2013-04-24 02:19:00,
2013-04-23 21:24:00,39.8,38.2,29.98,North,9,2.0,5.0,94,0.00,,,0.31,VWS V14.01,2013-04-24 02:24:00,
2013-04-23 21:29:00,39.9,38.3,29.98,NNE,32,1.0,1.0,94,0.00,,,0.31,VWS V14.01,2013-04-24 02:29:00,
2013-04-23 21:34:00,39.8,38.2,29.98,NNE,32,4.0,4.0,94,0.00,,,0.31,VWS V14.01,2013-04-24 02:34:00,
2013-04-23 21:39:00,39.7,38.1,29.99,NNE,32,3.0,3.0,94,0.01,,,0.32,VWS V14.01,2013-04-24 02:39:00,
2013-04-23 21:44:00,39.7,38.1,29.99,NNE,32,2.0,4.0,94,0.01,,,0.32,VWS V14.01,2013-04-24 02:44:00,
2013-04-23 21:49:00,39.7,38.1,29.99,NNE,32,4.0,6.0,94,0.01,,,0.32,VWS V14.01,2013-04-24 02:49:00,
2013-04-23 21:54:00,39.7,38.1,29.99,North,5,3.0,4.0,94,0.01,,,0.32,VWS V14.01,2013-04-24 02:54:00,
2013-04-23 21:59:00,39.7,38.1,30.00,NNE,28,0.0,1.0,94,0.01,,,0.32,VWS V14.01,2013-04-24 02:59:00,
2013-04-23 22:04:00,39.7,38.1,29.99,NE,38,1.0,1.0,94,0.01,,,0.32,VWS V14.01,2013-04-24 03:04:00,
2013-04-23 22:09:00,39.7,38.1,29.99,NE,35,2.0,4.0,94,0.01,,,0.32,VWS V14.01,2013-04-24 03:09:00,
2013-04-23 22:14:00,39.7,38.1,29.99,NNE,28,0.0,3.0,94,0.01,,,0.32,VWS V14.01,2013-04-24 03:14:00,
2013-04-23 22:19:00,39.7,38.1,29.99,NE,42,0.0,0.0,94,0.01,,,0.32,VWS V14.01,2013-04-24 03:19:00,
2013-04-23 22:24:00,39.7,38.1,30.00,NNE,28,3.0,5.0,94,0.01,,,0.32,VWS V14.01,2013-04-24 03:24:00,
2013-04-23 22:29:00,39.7,38.1,30.00,NNE,17,2.0,4.0,94,0.01,,,0.32,VWS V14.01,2013-04-24 03:29:00,
2013-04-23 22:34:00,39.7,38.1,30.00,NE,35,3.0,3.0,94,0.01,,,0.32,VWS V14.01,2013-04-24 03:34:00,
2013-04-23 22:39:00,39.8,38.2,30.00,NE,35,0.0,2.0,94,0.00,,,0.32,VWS V14.01,2013-04-24 03:39:00,
2013-04-23 22:44:00,39.7,38.1,30.00,NE,35,0.0,1.0,94,0.00,,,0.32,VWS V14.01,2013-04-24 03:44:00,
2013-04-23 22:49:00,39.7,38.1,30.00,NE,35,3.0,4.0,94,0.01,,,0.33,VWS V14.01,2013-04-24 03:49:00,
2013-04-23 22:54:00,39.6,38.0,30.00,NNE,32,2.0,5.0,94,0.01,,,0.33,VWS V14.01,2013-04-24 03:54:00,
2013-04-23 22:59:00,39.6,38.0,30.00,NNE,32,0.0,3.0,94,0.01,,,0.33,VWS V14.01,2013-04-24 03:59:00,
2013-04-23 23:01:00,39.6,38.0,30.00,NNE,32,2.0,2.0,94,0.01,,,0.33,VWS V14.01,2013-04-24 04:01:00,
2013-04-23 23:06:00,39.6,38.0,30.00,NNE,32,0.0,3.0,94,0.01,,,0.33,VWS V14.01,2013-04-24 04:06:00,
2013-04-23 23:11:00,39.6,38.0,30.01,NNE,32,0.0,0.0,94,0.01,,,0.33,VWS V14.01,2013-04-24 04:11:00,
2013-04-23 23:16:00,39.7,38.1,30.00,NNE,32,1.0,2.0,94,0.01,,,0.33,VWS V14.01,2013-04-24 04:16:00,
2013-04-23 23:21:00,39.7,38.1,30.01,NNE,32,0.0,0.0,94,0.01,,,0.33,VWS V14.01,2013-04-24 04:21:00,
2013-04-23 23:26:00,39.7,38.1,30.01,NNE,32,0.0,0.0,94,0.01,,,0.33,VWS V14.01,2013-04-24 04:26:00,
2013-04-23 23:31:00,39.7,38.1,30.01,NNE,32,0.0,1.0,94,0.01,,,0.33,VWS V14.01,2013-04-24 04:31:00,
2013-04-23 23:36:00,39.7,38.1,30.01,NNE,32,0.0,1.0,94,0.01,,,0.33,VWS V14.01,2013-04-24 04:36:00,
2013-04-23 23:41:00,39.7,38.1,30.02,NNE,32,0.0,0.0,94,0.01,,,0.33,VWS V14.01,2013-04-24 04:41:00,
2013-04-23 23:46:00,39.7,38.1,30.03,NNE,32,0.0,0.0,94,0.01,,,0.33,VWS V14.01,2013-04-24 04:46:00,
2013-04-23 23:51:00,39.7,38.1,30.02,NNE,32,0.0,1.0,94,0.00,,,0.33,VWS V14.01,2013-04-24 04:51:00,
2013-04-23 23:56:00,39.7,38.4,30.03,NNE,32,0.0,1.0,95,0.01,,,0.34,VWS V14.01,2013-04-24 04:56:00,